Regional Weather Roundup
Issued by NWS

Home | Current Version | Previous Version | Graphics & Text | Print | Product List | Glossary On
Versions: 1 2 3 4 5 6 7 8 9 10 11 12 13 14 15 16 17 18 19 20 21 22 23 24 25 26 27 28 29 30 31 32 33 34 35 36 37 38 39 40 41 42 43 44 45 46 47 48 49 50
000
ASUS43 KLOT 050101
RWRIL

ILLINOIS REGIONAL WEATHER ROUNDUP
NATIONAL WEATHER SERVICE CHICAGO/ROMEOVILLE IL
800 PM CDT FRI SEP 04 2015

NOTE: "FAIR" INDICATES FEW OR NO CLOUDS BELOW 12,000 FEET WITH NO
SIGNIFICANT WEATHER AND/OR OBSTRUCTIONS TO VISIBILITY.

* THESE STATIONS ARE NOT UNDER NWS QUALITY CONTROL. THEY ALSO MAY NOT
  REPORT WEATHER SUCH AS PRECIPITATION OR FOG.

ILZ001-002-007-009-015-016-024-050200-
NORTHWEST ILLINOIS

CITY           SKY/WX    TMP DP  RH WIND       PRES   REMARKS
MOLINE         CLEAR     79  72  79 CALM      29.97R HX  82
STERLING*      PTCLDY   N/A N/A N/A CALM      29.97R
$$

ILZ003-004-008-010-011-017-018-050200-
NORTH CENTRAL ILLINOIS

CITY           SKY/WX    TMP DP  RH WIND       PRES   REMARKS
ROCKFORD       PTCLDY    82  73  74 CALM      30.01R HX  87
FREEPORT*      MOCLDY    76  73  88 CALM      30.02R
$$

ILZ005-006-012>014-019>023-050200-
NORTHEAST ILLINOIS

CITY           SKY/WX    TMP DP  RH WIND       PRES   REMARKS
CHICAGO-OHARE  PTCLDY    73  67  81 E8        30.02F
CHICAGO-MIDWAY FAIR      75  66  73 E8        30.03S
AURORA         CLEAR     79  69  71 E13       30.02R HX  81
LANSING*       PTCLDY    73  67  83 NE3       30.03R
WAUKEGAN       CLOUDY    68  67  96 E6        30.04S
DUPAGE AIRPORT CLEAR     75  66  73 E7        30.02S
WHEELING       PTCLDY    71  66  84 E6        30.05R
NORTHERLY ISL    N/A     71  67  87 E6          N/A
$$

LMZ740>746-050200-
SOUTHERN LAKE MICHIGAN

STATION/POSITION SKY/WX   TEMP    WIND        PRES    VSBY  WAVE
                          AIR SEA DIR/SP/G                  HT/PER
                          (F)     (DEG/KT/KT) (MB)    (MI)  (FT/S)
SOUTHERN BUOY              67 71   50/  8/ 10 1016.8R         1
WILMETTE HARBOR            71 71  270/  4/  6   N/A           1/ 3
HARRISON CRIB              71     100/  5/  6   N/A
BURNHAM HARBOR             71      60/  5/  6   N/A
CALUMET HARBOR             72      40/  5/  6   N/A
BURNS HARBOR               72      70/ 10/ 12 1017.3F
MICHIGAN CITY              71      30/  9/ 10   N/A
MICHIGAN CITY 6N           71 74   70/  8/ 10   N/A           1
ST. JOSEPH                 71 76   90/  6/  8   N/A           1/ 3
$$

ILZ025>027-034>036-040-047-049-050-058-095>099-050200-
WEST-CENTRAL ILLINOIS

CITY           SKY/WX    TMP DP  RH WIND       PRES   REMARKS
QUINCY         PTCLDY    83  69  62 SE6       29.98R HX  86
$$

ILZ028>032-037-038-041>044-048-051>054-059>061-050200-
CENTRAL ILLINOIS

CITY           SKY/WX    TMP DP  RH WIND       PRES   REMARKS
DECATUR        PTCLDY    83  66  56 S5        30.00S HX  85
PEORIA         CLEAR     85  71  63 CALM      29.98S HX  90
SPRINGFIELD    CLEAR     81  69  67 SW5       29.99S HX  84
TAYLORVILLE    NOT AVBL
$$

ILZ033-039-045-046-055>057-062-063-050200-
EAST-CENTRAL ILLINOIS

CITY           SKY/WX    TMP DP  RH WIND       PRES   REMARKS
CHAMPAIGN      PTCLDY    77  64  64 CALM      30.02R
MATTOON        MOCLDY    82  69  64 S3        30.00S HX  85
$$

ILZ079-100>102-050200-
SOUTHWEST ILLINOIS

CITY           SKY/WX    TMP DP  RH WIND       PRES   REMARKS
ALTON          PTCLDY    77  72  83 CALM      29.99S
CAHOKIA*       CLEAR     83  71  67 S5        29.98S HX  87
$$

ILZ064>066-069>071-074>076-080>082-084>086-088>090-092>094-050200-
SOUTH-CENTRAL ILLINOIS

CITY           SKY/WX    TMP DP  RH WIND       PRES   REMARKS
CARBONDALE     CLEAR     77  72  84 CALM      30.00R
MT. VERNON     CLEAR     75  68  78 CALM      30.01S
CENTRALIA*     CLEAR     80  75  85 CALM      30.00S HX  84
$$

ILZ067-068-072-073-078-083-087-091-050200-
SOUTHEAST ILLINOIS

CITY           SKY/WX    TMP DP  RH WIND       PRES   REMARKS
LAWRENCEVILLE  PTCLDY    81  71  71 CALM      30.01R HX  85
FLORA*         PTCLDY    79  69  70 SW3       30.01S HX  82
ROBINSON*      MOCLDY    77  71  82 CALM      30.02R
$$

ABBREVIATIONS USED IN REMARKS
   TC - TEMPERATURE IN CELSIUS
  WCI - WIND CHILL INDEX
   HX - HEAT INDEX
  VSB - VISIBILITY
$$



USA.gov is the U.S. government's official web portal to all federal, state and local government web resources and services.